User: anonymous   Login
Location: Unspecified
(0.0000°N, 0.0000°E)
Time: 17:05:49
(UTC+00:00)
Language:

Sunsat (SO-35) - Orbit

View from above orbital plane
View from above orbital plane
View from above satellite
View from above satellite

Ground track
Ground track

The orbit data is extracted from the following two-line orbital elements,

1 25636U 99008C   17265.10542218  .00000030  00000-0  15513-4 0  9994
2 25636  96.4623 131.5122 0146159  16.1114 344.4657 14.44624393978769
Epoch (UTC): 22 September 2017 02:31:48
Eccentricity: 0.0146159
inclination: 96.4623°
perigee height: 639 km
apogee height: 847 km
right ascension of ascending node: 131.5122°
argument of perigee: 16.1114°
revolutions per day: 14.44624393
mean anomaly at epoch: 344.4657°
orbit number at epoch: 97876

The dashed part of the orbit path shows where the satellite is in the earth's shadow,  

DLR